This is the latest recevied weather packets stored in our database for station/object LY3PGO-4. If no packets are shown the sender has not sent any weather packets the latest 1 day(s).
| Time | Temp. | Humidity | Pressure | Rain* | Wind** | Luminosity | Snow |
|---|---|---|---|---|---|---|---|
| 1778055407 | 13.89° C | 49% | 1009.6 hPa | 0 mm | - | - | - |
| 1778054804 | 13.33° C | 49% | 1009.6 hPa | 0 mm | - | - | - |
| 1778053589 | 12.78° C | 53% | 1009.9 hPa | 0 mm | - | - | - |
| 1778051773 | 11.67° C | 55% | 1010.1 hPa | 0 mm | - | - | - |
| 1778050557 | 10.56° C | 59% | 1010.4 hPa | 0 mm | - | - | - |
| 1778049952 | 10° C | 59% | 1010.4 hPa | 0 mm | - | - | - |
| 1778047527 | 8.89° C | 62% | 1010.5 hPa | 0 mm | - | - | - |
| 1778046314 | 8.89° C | 62% | 1010.4 hPa | 0 mm | - | - | - |
| 1778045711 | 8.89° C | 63% | 1010.4 hPa | 0 mm | - | - | - |
| 1778044495 | 8.33° C | 62% | 1010.2 hPa | 0 mm | - | - | - |
| 1778043890 | 8.89° C | 60% | 1010.3 hPa | 0 mm | - | - | - |
| 1778043283 | 8.89° C | 64% | 1010.7 hPa | 0 mm | - | - | - |
| 1778042680 | 8.89° C | 63% | 1010.7 hPa | 0 mm | - | - | - |
| 1778042071 | 8.33° C | 66% | 1010.3 hPa | 0 mm | - | - | - |
| 1778040858 | 8.33° C | 64% | 1010.8 hPa | 0 mm | - | - | - |
| 1778040252 | 8.89° C | 62% | 1010.7 hPa | 0 mm | - | - | - |
| 1778039040 | 8.89° C | 65% | 1010.5 hPa | 0 mm | - | - | - |
| 1778038434 | 8.89° C | 68% | 1010.3 hPa | 0 mm | - | - | - |
| 1778037828 | 8.89° C | 68% | 1010.2 hPa | 0 mm | - | - | - |
| 1778037221 | 8.89° C | 68% | 1010.3 hPa | 0 mm | - | - | - |
| 1778036618 | 8.89° C | 68% | 1010.2 hPa | 0 mm | - | - | - |
| 1778036010 | 8.89° C | 69% | 1010.3 hPa | 0 mm | - | - | - |
| 1778035403 | 8.89° C | 71% | 1010.3 hPa | 0 mm | - | - | - |
| 1778033587 | 8.89° C | 74% | 1009.9 hPa | 0 mm | - | - | - |
| 1778032371 | 8.89° C | 79% | 1009.7 hPa | 0 mm | - | - | - |
* Rain latest hour (hover to see other rain measurements)
** Current wind speed in m/s (hover to see current wind gust speed)